Content
SEND FEEDBACK

Daily
Averages
Monthly
Summary
United States of America

UMATAC, GUAM


Home > North America > United States > Guam
Elevation: 190 feet     Latitude: 13 17N     Longitude: 144 40E

WEATHER
 
SELECT A DAY
Number of Records: 342,038;   Date Range: 1/1/95 - 7/29/14
 
SHARE

PRINT THIS DATA

[ ← Previous Day ]
WEATHER ALMANAC - MAY 14, 2013
[ Next Day → ]
[ °C ]   °F
Weather ElementAverageHighLow
Temperature82.3 °F86 °F (11:56 am)78.8 °F (2:14 am)
Dewpoint74.8 °F77 °F (12:34 pm)72.9 °F (4:55 am)
Humidity78.1 %87 % (11:55 pm)70 % (11:56 am)
Barometer29.83 in29.88 in (7:55 am)29.79 in (4:29 pm)
Wind Speed11.3 mph13.8 mph (4:49 am)
Wind Gust19.6 mph (2:07 pm)
Weather ElementAverage
Visibility10 mi
Wind DirectionESE (98.3 °)

Weather ElementTotal
Precipitation0.01 in
Cooling Degree Days17.4 (Base 65)
Growing Degree Days32.4 (Base 50)
Averaged from 69 records on May 14, 2013
WEATHER CONDITIONS BREAKOUT
WIND DIRECTION BREAKOUT
WEATHER BY HOUR - MAY 14, 2013
[ °C ]   °F
Local TimeTemperatureDewpointHumidityBarometerVisibilityWind DirectionWind SpeedGust SpeedPrecipitationEventsConditions
1:55 AM79.3 °F74.3 °F84 %29.84 in10.0 miESE (110°)9.2 mphScattered Clouds
2:14 AM78.8 °F73.4 °F83 %29.84 in10.0 miESE (120°)9.2 mphMostly Cloudy
2:33 AM78.8 °F73.4 °F83 %29.83 in10.0 miESE (110°)12.7 mphScattered Clouds
2:55 AM79.2 °F73.8 °F83 %29.83 in10.0 miESE (120°)11.5 mph0.01 inPartly Cloudy
3:55 AM79.2 °F73.2 °F82 %29.84 in10.0 miESE (120°)11.5 mphPartly Cloudy
4:33 AM78.8 °F73.4 °F83 %29.84 in10.0 miESE (120°)9.2 mphMostly Cloudy
4:49 AM78.8 °F73.4 °F83 %29.84 in10.0 miESE (120°)13.8 mphScattered Clouds
4:53 AM78.8 °F73.4 °F83 %29.84 in10.0 miSE (130°)11.5 mphMostly Cloudy
4:55 AM79.2 °F72.9 °F81 %29.84 in10.0 miESE (120°)11.5 mphMostly Cloudy
5:18 AM78.8 °F73.4 °F83 %29.85 in10.0 miESE (120°)10.4 mphScattered Clouds
6:55 AM80.6 °F73.0 °F78 %29.87 in10.0 miESE (120°)10.4 mphPartly Cloudy
7:55 AM82.4 °F73.8 °F75 %29.88 in10.0 miEast (90°)10.4 mphClear
8:55 AM83.5 °F74.8 °F75 %29.88 in10.0 miEast (90°)10.4 mphPartly Cloudy
9:55 AM84.0 °F74.8 °F74 %29.87 in10.0 miEast (100°)9.2 mphClear
10:55 AM84.6 °F75.4 °F74 %29.86 in10.0 miEast (100°)11.5 mphPartly Cloudy
11:26 AM84.2 °F75.2 °F74 %29.85 in10.0 miEast (100°)9.2 mphMostly Cloudy
11:55 AM85.3 °F75.2 °F72 %29.84 in10.0 miEast (100°)11.5 mphMostly Cloudy
11:56 AM86.0 °F75.2 °F70 %29.84 in10.0 miESE (110°)12.7 mphScattered Clouds
12:04 PM86.0 °F75.2 °F70 %29.84 in10.0 miEast (100°)11.5 mphMostly Cloudy
12:06 PM86.0 °F75.2 °F70 %29.84 in10.0 miEast (90°)13.8 mphMostly Cloudy
12:17 PM84.2 °F75.2 °F74 %29.84 in10.0 miESE (110°)13.8 mphMostly Cloudy
12:27 PM84.2 °F75.2 °F74 %29.84 in10.0 miEast (90°)12.7 mphMostly Cloudy
12:34 PM84.2 °F77.0 °F79 %29.84 in10.0 miEast (90°)12.7 mphMostly Cloudy
12:35 PM84.2 °F75.2 °F74 %29.84 in10.0 miEast (100°)12.7 mphMostly Cloudy
12:36 PM84.2 °F75.2 °F74 %29.84 in10.0 miEast (100°)12.7 mphMostly Cloudy
12:44 PM84.2 °F75.2 °F74 %29.84 in10.0 miEast (100°)13.8 mphMostly Cloudy
12:55 PM85.8 °F75.0 °F70 %29.83 in10.0 miEast (100°)13.8 mphScattered Clouds
1:15 PM84.2 °F75.2 °F74 %29.83 in10.0 miESE (110°)12.7 mphMostly Cloudy
1:33 PM84.2 °F75.2 °F74 %29.82 in10.0 miEast (100°)12.7 mphScattered Clouds
1:55 PM85.6 °F75.9 °F73 %29.81 in10.0 miEast (80°)12.7 mphPartly Cloudy
2:07 PM86.0 °F75.2 °F70 %29.81 in10.0 miEast (90°)13.8 mph19.6 mphMostly Cloudy
2:11 PM84.2 °F75.2 °F74 %29.81 in10.0 miEast (100°)11.5 mph19.6 mphScattered Clouds
2:41 PM84.2 °F75.2 °F74 %29.81 in10.0 miEast (100°)13.8 mph19.6 mphMostly Cloudy
2:55 PM83.7 °F74.3 °F73 %29.81 in10.0 miEast (100°)11.5 mphMostly Cloudy
2:59 PM84.2 °F75.2 °F74 %29.81 in10.0 miEast (90°)11.5 mphScattered Clouds
3:03 PM84.2 °F75.2 °F74 %29.81 in10.0 miEast (100°)10.4 mphMostly Cloudy
3:07 PM84.2 °F75.2 °F74 %29.81 in10.0 miESE (110°)12.7 mphScattered Clouds
3:55 PM84.4 °F74.3 °F72 %29.80 in10.0 miEast (80°)11.5 mphPartly Cloudy
4:12 PM84.2 °F75.2 °F74 %29.80 in10.0 miEast (90°)11.5 mphRainLight Rain
4:29 PM84.2 °F73.4 °F70 %29.79 in10.0 miEast (100°)10.4 mphPartly Cloudy
4:55 PM83.7 °F74.7 °F74 %29.80 in10.0 miEast (90°)10.4 mph0.00 inPartly Cloudy
5:15 PM84.2 °F75.2 °F74 %29.80 in10.0 miEast (80°)12.7 mphMostly Cloudy
5:17 PM82.4 °F75.2 °F79 %29.80 in10.0 miEast (100°)10.4 mphScattered Clouds
5:29 PM82.4 °F75.2 °F79 %29.80 in10.0 miEast (90°)9.2 mphMostly Cloudy
5:31 PM82.4 °F75.2 °F79 %29.80 in10.0 miEast (100°)10.4 mphScattered Clouds
5:34 PM82.4 °F75.2 °F79 %29.80 in10.0 miEast (100°)9.2 mphMostly Cloudy
5:38 PM82.4 °F75.2 °F79 %29.80 in10.0 miEast (90°)9.2 mphScattered Clouds
5:43 PM82.4 °F75.2 °F79 %29.81 in10.0 miEast (100°)10.4 mphMostly Cloudy
5:44 PM82.4 °F75.2 °F79 %29.81 in10.0 miEast (80°)10.4 mphScattered Clouds
5:50 PM82.4 °F75.2 °F79 %29.81 in10.0 miEast (90°)10.4 mphMostly Cloudy
5:55 PM81.9 °F74.1 °F77 %29.81 in10.0 miEast (90°)12.7 mphMostly Cloudy
6:16 PM80.6 °F73.4 °F79 %29.81 in10.0 miEast (90°)10.4 mphScattered Clouds
6:52 PM80.6 °F75.2 °F84 %29.82 in10.0 miEast (80°)9.2 mphMostly Cloudy
6:55 PM80.6 °F74.5 °F82 %29.82 in10.0 miEast (80°)8.1 mphMostly Cloudy
7:20 PM80.6 °F73.4 °F79 %29.83 in10.0 miEast (100°)9.2 mphScattered Clouds
7:22 PM80.6 °F75.2 °F84 %29.83 in10.0 miEast (100°)9.2 mphMostly Cloudy
7:25 PM80.6 °F75.2 °F84 %29.83 in10.0 miEast (90°)9.2 mphScattered Clouds
7:55 PM80.4 °F74.7 °F83 %29.84 in10.0 miEast (90°)11.5 mphMostly Cloudy
8:09 PM80.6 °F75.2 °F84 %29.84 in10.0 miEast (100°)10.4 mphScattered Clouds
8:21 PM80.6 °F75.2 °F84 %29.85 in10.0 miEast (90°)9.2 mphMostly Cloudy
8:24 PM80.6 °F75.2 °F84 %29.85 in10.0 miEast (90°)11.5 mphScattered Clouds
8:43 PM80.6 °F75.2 °F84 %29.86 in10.0 miEast (90°)11.5 mphMostly Cloudy
8:48 PM80.6 °F75.2 °F84 %29.86 in10.0 miEast (90°)11.5 mphScattered Clouds
8:49 PM80.6 °F75.2 °F84 %29.86 in10.0 miEast (90°)13.8 mphMostly Cloudy
8:53 PM80.6 °F75.2 °F84 %29.86 in10.0 miEast (90°)13.8 mphScattered Clouds
8:55 PM80.4 °F74.7 °F83 %29.86 in10.0 miEast (80°)12.7 mphScattered Clouds
9:55 PM80.2 °F75.2 °F85 %29.87 in10.0 miEast (100°)11.5 mphScattered Clouds
10:55 PM80.2 °F75.0 °F84 %29.88 in10.0 miEast (90°)11.5 mphPartly Cloudy
11:55 PM79.9 °F75.7 °F87 %29.87 in10.0 miEast (100°)11.5 mphPartly Cloudy
Hourly data recorded from PGUA, located miles away from Umatac, Guam







STORIES FROM OUR PARTNERS